Provo, UT

8:14 PM MST on December 03, 2016 (GMT -0700)
Provo Municipal

Weather History for KPVU - October, 2012

Change the Weather History Date:

Monday, October 8, 2012

  Actual Average Record
Temperature  
Mean Temperature 49 °F -  
Max Temperature 66 °F 66 °F 82 °F (2003)
Min Temperature 32 °F 38 °F 32 °F (1982)
Degree Days  
Heating Degree Days 16    
Moisture  
Dew Point 27 °F    
Average Humidity 53    
Maximum Humidity 71    
Minimum Humidity 26    
Precipitation  
Precipitation 0.00 in - - ()
Sea Level Pressure  
Sea Level Pressure 30.07 in    
Wind  
Wind Speed 3 mph (SE)    
Max Wind Speed 9 mph    
Max Gust Speed -    
Visibility 12 miles    
Events      
Averages and records for this station are not official NWS values.
T = Trace of Precipitation, MM = Missing Value Source: NWS Daily Summary

Daily Weather History Graph

Daily Weather History Graph

Search for Another Location

Airport or City:

Trip Planner

Search our weather history database for the weather conditions in past years. The results will help you decide how hot, cold, wet, or windy it might be!

Date:

Astronomy

Oct. 08, 2012 Rise Set
Actual Time 7:30 AM MDT 6:56 PM MDT
Civil Twilight 7:03 AM MDT 7:24 PM MDT
Nautical Twilight 6:32 AM MDT 7:55 PM MDT
Astronomical Twilight 6:00 AM MDT 8:27 PM MDT
Moon 12:13 AM MDT (10/8) 2:49 PM MDT (10/8)
Length of Visible Light 12h 20m
Length of Day
11h 26m
Last Quarter, 46% of the Moon is Illuminated
Oct 8
Last Quarter
Oct 15
New
Oct 21
First Quarter
Oct 29
Full
Nov 6
Last Quarter

Hourly Weather History & Observations

Time (MDT) Temp. Windchill Dew Point Humidity Pressure Visibility Wind Dir Wind Speed Gust Speed Precip Events Conditions
12:35 AM 37.4 °F 34.9 °F 21.2 °F 52% 30.13 in 10.0 mi SE 3.5 mph - N/A   Clear
1:15 AM 39.2 °F 35.9 °F 23.0 °F 52% 30.13 in 10.0 mi ESE 4.6 mph - N/A   Clear
1:55 AM 37.4 °F - 24.8 °F 60% 30.14 in 10.0 mi Calm Calm - N/A   Clear
2:15 AM 39.2 °F - 21.2 °F 49% 30.14 in 10.0 mi Calm Calm - N/A   Clear
2:35 AM 37.4 °F - 21.2 °F 52% 30.14 in 10.0 mi Calm Calm - N/A   Clear
2:55 AM 35.6 °F 32.8 °F 21.2 °F 56% 30.14 in 10.0 mi SSE 3.5 mph - N/A   Clear
3:15 AM 35.6 °F - 21.2 °F 56% 30.14 in 10.0 mi Calm Calm - N/A   Clear
3:35 AM 33.8 °F 30.8 °F 21.2 °F 60% 30.13 in 10.0 mi East 3.5 mph - N/A   Clear
3:55 AM 33.8 °F 29.6 °F 21.2 °F 60% 30.13 in 10.0 mi East 4.6 mph - N/A   Clear
4:16 AM 33.8 °F 29.6 °F 21.2 °F 60% 30.12 in 10.0 mi ESE 4.6 mph - N/A   Clear
4:35 AM 35.6 °F 32.8 °F 24.8 °F 65% 30.12 in 10.0 mi ESE 3.5 mph - N/A   Clear
4:55 AM 35.6 °F - 21.2 °F 56% 30.12 in 10.0 mi Calm Calm - N/A   Clear
5:15 AM 33.8 °F - 23.0 °F 65% 30.12 in 10.0 mi Calm Calm - N/A   Clear
5:35 AM 33.8 °F - 21.2 °F 60% 30.12 in 10.0 mi Calm Calm - N/A   Clear
6:15 AM 33.8 °F - 19.4 °F 56% 30.12 in 10.0 mi Calm Calm - N/A   Clear
6:48 AM 32.0 °F 28.7 °F 19.4 °F 60% 30.12 in 15.0 mi Variable 3.5 mph - N/A   Partly Cloudy
7:49 AM 32.0 °F 28.7 °F 23.0 °F 69% 30.12 in 15.0 mi Variable 3.5 mph - N/A   Partly Cloudy
8:47 AM 37.4 °F 34.9 °F 24.8 °F 60% 30.13 in 15.0 mi Variable 3.5 mph - N/A   Partly Cloudy
9:55 AM 48.2 °F - 21.2 °F 34% 30.12 in 15.0 mi SSE 9.2 mph - N/A   Partly Cloudy
10:48 AM 51.8 °F - 19.4 °F 28% 30.10 in 15.0 mi ESE 6.9 mph - N/A   Partly Cloudy
11:52 AM 55.4 °F - 21.2 °F 26% 30.09 in 15.0 mi Calm Calm - N/A   Partly Cloudy
12:48 PM 60.8 °F - 28.4 °F 29% 30.07 in 15.0 mi Variable 5.8 mph - N/A   Partly Cloudy
1:51 PM 60.8 °F - 26.6 °F 27% 30.04 in 15.0 mi WSW 5.8 mph - N/A   Partly Cloudy
2:47 PM 62.6 °F - 32.0 °F 32% 30.01 in 15.0 mi West 4.6 mph - N/A   Partly Cloudy
3:47 PM 64.4 °F - 35.6 °F 34% 29.99 in 15.0 mi NW 4.6 mph - N/A   Partly Cloudy
4:52 PM 66.2 °F - 33.8 °F 30% 29.98 in 15.0 mi Variable 4.6 mph - N/A   Partly Cloudy
6:50 PM 60.8 °F - 35.6 °F 39% 29.96 in 15.0 mi Variable 5.8 mph - N/A   Partly Cloudy
8:50 PM 51.8 °F - 39.2 °F 62% 29.97 in 15.0 mi Variable 5.8 mph - N/A   Clear
9:15 PM 51.8 °F - 41.0 °F 67% 29.97 in 10.0 mi ESE 3.5 mph - N/A   Clear
9:55 PM 48.2 °F - 37.4 °F 66% 29.98 in 10.0 mi Calm Calm - N/A   Clear
10:15 PM 46.4 °F - 37.4 °F 71% 29.98 in 10.0 mi Calm Calm - N/A   Clear
10:35 PM 48.2 °F - 35.6 °F 62% 29.98 in 10.0 mi South 3.5 mph - N/A   Clear
10:55 PM 48.2 °F - 37.4 °F 66% 29.98 in 10.0 mi Calm Calm - N/A   Clear
11:15 PM 50.0 °F - 33.8 °F 54% 29.98 in 10.0 mi Calm Calm - N/A   Clear
11:35 PM 44.6 °F - 35.6 °F 71% 29.98 in 10.0 mi Calm Calm - N/A   Clear
11:55 PM 44.6 °F - 35.6 °F 71% 29.97 in 10.0 mi Calm Calm - N/A   Clear